English version Home page |
Updated on January 20, 2022 |
プロフィール
|
軌道要素Epoch 2021 Aug. 14.0 TT = JDT 2459440.5 T 2021 July 27.53165 TT Rudenko q 2.0563540 (2000.0) P Q n 0.18782546 Peri. 244.16420 +0.90697132 +0.27383735 a 3.0197181 Node 98.55657 -0.16326605 +0.92897371 e 0.3190245 Incl. 18.88243 -0.38826179 +0.24904008 P 5.25 From 82 observations 2002 Jan. 9-2021 Oct. 7, mean residual 0".3.
|
光度変化m1 = 17.0 + 5 logΔ + 8.0 log r
|
軌道要素はM.P.E.C. 2021-T184に掲載されたものです。
|